"read_dt","SO2 (ppb)","flags","PMT voltage (V)","lamp voltage (V)","lamp intensity (Hz)","internal temp (C)","react chamber temp (C)","sample flow (l/min)","pres (mmHg)","SO2 bkg (ppb)","SO2 coefficient"
2017-04-06 00:00:00,1741E-3,5C000400,-0724,0836,12069,030.4,045.5,0.216,748.4,01.17,0.508
2017-04-06 00:01:00,1694E-3,5C000400,-0724,0836,12254,030.4,045.5,0.216,748.4,01.17,0.508
2017-04-06 00:02:00,1748E-3,5C000400,-0724,0835,12036,030.5,045.5,0.216,748.4,01.17,0.508
2017-04-06 00:03:00,1575E-3,5C000400,-0724,0835,12079,030.5,045.5,0.216,748.4,01.17,0.508
2017-04-06 00:04:00,1656E-3,5C000400,-0724,0836,11967,030.5,045.5,0.216,748.4,01.17,0.508
2017-04-06 00:05:00,1694E-3,5C000400,-0724,0836,12036,030.5,045.5,0.216,748.4,01.17,0.508
2017-04-06 00:06:00,1764E-3,5C000400,-0724,0835,12073,030.5,045.5,0.216,748.4,01.17,0.508
2017-04-06 00:07:00,1567E-3,5C000400,-0724,0835,12226,030.5,045.5,0.216,748.4,01.17,0.508
2017-04-06 00:08:00,1692E-3,5C000400,-0724,0835,12115,030.5,045.5,0.216,748.4,01.17,0.508
2017-04-06 00:09:00,1781E-3,5C000400,-0724,0836,12154,030.5,045.5,0.216,748.4,01.17,0.508
2017-04-06 00:10:00,1664E-3,5C000400,-0724,0837,12136,030.6,045.5,0.216,748.4,01.17,0.508
2017-04-06 00:11:00,1572E-3,5C000400,-0724,0835,12158,030.6,045.5,0.216,748.4,01.17,0.508
2017-04-06 00:12:00,1602E-3,5C000400,-0724,0836,12117,030.6,045.5,0.216,748.4,01.17,0.508
2017-04-06 00:13:00,1628E-3,5C000400,-0724,0835,12101,030.6,045.5,0.216,748.4,01.17,0.508
2017-04-06 00:14:00,1723E-3,5C000400,-0724,0835,12055,030.6,045.5,0.216,748.4,01.17,0.508
2017-04-06 00:15:00,1634E-3,5C000400,-0724,0835,11986,030.6,045.5,0.216,748.4,01.17,0.508
2017-04-06 00:16:00,1646E-3,5C000400,-0724,0835,11993,030.6,045.5,0.216,748.4,01.17,0.508
2017-04-06 00:17:00,1772E-3,5C000400,-0724,0836,12109,030.6,045.5,0.216,748.4,01.17,0.508
2017-04-06 00:18:00,1595E-3,5C000400,-0724,0836,12198,030.6,045.5,0.216,748.4,01.17,0.508
2017-04-06 00:19:00,1716E-3,5C000400,-0724,0835,12016,030.6,045.5,0.216,748.4,01.17,0.508
2017-04-06 00:20:00,1679E-3,5C000400,-0724,0835,12200,030.6,045.5,0.215,748.4,01.17,0.508
2017-04-06 00:21:00,1644E-3,5C000400,-0724,0835,12023,030.6,045.5,0.215,748.4,01.17,0.508
2017-04-06 00:22:00,1607E-3,5C000400,-0724,0836,12021,030.6,045.5,0.216,748.4,01.17,0.508
2017-04-06 00:23:00,1619E-3,5C000400,-0724,0835,12100,030.6,045.5,0.216,748.4,01.17,0.508
2017-04-06 00:24:00,1651E-3,5C000400,-0724,0835,12020,030.6,045.5,0.216,748.4,01.17,0.508
2017-04-06 00:25:00,1709E-3,5C000400,-0724,0835,12061,030.7,045.5,0.216,748.4,01.17,0.508
2017-04-06 00:26:00,1633E-3,5C000400,-0724,0836,12041,030.7,045.5,0.216,748.4,01.17,0.508
2017-04-06 00:27:00,1683E-3,5C000400,-0724,0836,12211,030.7,045.5,0.216,748.4,01.17,0.508
2017-04-06 00:28:00,1722E-3,5C000400,-0724,0835,12222,030.7,045.5,0.215,748.4,01.17,0.508
2017-04-06 00:29:00,1581E-3,5C000400,-0724,0835,11967,030.7,045.5,0.215,748.4,01.17,0.508
2017-04-06 00:30:00,1685E-3,5C000400,-0724,0835,12099,030.7,045.5,0.215,748.4,01.17,0.508
2017-04-06 00:31:00,1760E-3,5C000400,-0724,0835,12048,030.7,045.5,0.216,748.4,01.17,0.508
2017-04-06 00:32:00,1559E-3,5C000400,-0724,0835,12133,030.7,045.5,0.216,748.3,01.17,0.508
2017-04-06 00:33:00,1559E-3,5C000400,-0724,0836,12217,030.7,045.5,0.216,748.3,01.17,0.508
2017-04-06 00:34:00,1651E-3,5C000400,-0724,0835,12039,030.7,045.5,0.216,748.3,01.17,0.508
2017-04-06 00:35:00,1538E-3,5C000400,-0724,0836,12123,030.7,045.5,0.215,748.3,01.17,0.508
2017-04-06 00:36:00,1693E-3,5C000400,-0724,0835,12024,030.7,045.5,0.215,748.3,01.17,0.508
2017-04-06 00:37:00,1648E-3,5C000400,-0724,0835,11987,030.7,045.5,0.215,748.3,01.17,0.508
2017-04-06 00:38:00,1648E-3,5C000400,-0724,0835,12174,030.7,045.5,0.215,748.3,01.17,0.508
2017-04-06 00:39:00,1583E-3,5C000400,-0724,0835,12106,030.7,045.5,0.215,748.3,01.17,0.508
2017-04-06 00:40:00,1633E-3,5C000400,-0724,0835,12050,030.7,045.5,0.216,748.3,01.17,0.508
2017-04-06 00:41:00,1678E-3,5C000400,-0724,0835,12058,030.7,045.5,0.216,748.3,01.17,0.508
2017-04-06 00:42:00,1698E-3,5C000400,-0724,0835,12091,030.7,045.5,0.215,748.3,01.17,0.508
2017-04-06 00:43:00,1676E-3,5C000400,-0724,0836,12124,030.8,045.5,0.215,748.3,01.17,0.508
2017-04-06 00:44:00,1801E-3,5C000400,-0724,0835,12086,030.7,045.5,0.215,748.2,01.17,0.508
2017-04-06 00:45:00,1675E-3,5C000400,-0724,0836,12146,030.7,045.6,0.215,748.3,01.17,0.508
2017-04-06 00:46:00,1748E-3,5C000400,-0724,0835,12079,030.7,045.5,0.215,748.3,01.17,0.508
2017-04-06 00:47:00,1722E-3,5C000400,-0724,0835,11979,030.7,045.5,0.215,748.3,01.17,0.508
2017-04-06 00:48:00,1682E-3,5C000400,-0724,0836,12038,030.7,045.5,0.215,748.3,01.17,0.508
2017-04-06 00:49:00,1658E-3,5C000400,-0724,0836,12064,030.7,045.5,0.216,748.3,01.17,0.508
2017-04-06 00:50:00,1675E-3,5C000400,-0724,0835,12033,030.7,045.5,0.215,748.3,01.17,0.508
2017-04-06 00:51:00,1730E-3,5C000400,-0724,0837,12123,030.7,045.5,0.215,748.3,01.17,0.508
2017-04-06 00:52:00,1816E-3,5C000400,-0724,0835,11918,030.8,045.5,0.215,748.3,01.17,0.508
2017-04-06 00:53:00,1609E-3,5C000400,-0724,0836,12117,030.8,045.5,0.215,748.3,01.17,0.508
2017-04-06 00:54:00,1639E-3,5C000400,-0724,0835,12117,030.8,045.5,0.215,748.3,01.17,0.508
2017-04-06 00:55:00,1590E-3,5C000400,-0724,0836,12101,030.7,045.5,0.215,748.4,01.17,0.508
2017-04-06 00:56:00,1668E-3,5C000400,-0724,0836,12093,030.7,045.5,0.215,748.3,01.17,0.508
2017-04-06 00:57:00,1619E-3,5C000400,-0724,0835,12123,030.7,045.5,0.216,748.4,01.17,0.508
2017-04-06 00:58:00,1671E-3,5C000400,-0724,0835,12046,030.7,045.5,0.216,748.3,01.17,0.508
2017-04-06 00:59:00,1640E-3,5C000400,-0724,0836,12134,030.7,045.5,0.215,748.3,01.17,0.508
2017-04-06 01:00:00,1680E-3,5C000400,-0724,0836,12044,030.7,045.5,0.215,748.3,01.17,0.508
2017-04-06 01:01:00,1606E-3,5C000400,-0724,0835,11928,030.7,045.5,0.215,748.3,01.17,0.508
2017-04-06 01:02:00,1561E-3,5C000400,-0724,0837,12039,030.7,045.5,0.215,748.3,01.17,0.508
2017-04-06 01:03:00,1629E-3,5C000400,-0724,0836,12057,030.7,045.5,0.215,748.3,01.17,0.508
2017-04-06 01:04:00,1698E-3,5C000400,-0724,0835,12026,030.7,045.5,0.215,748.2,01.17,0.508
2017-04-06 01:05:00,1708E-3,5C000400,-0724,0836,12092,030.7,045.5,0.215,748.3,01.17,0.508
2017-04-06 01:06:00,1627E-3,5C000400,-0724,0835,12058,030.7,045.5,0.216,748.3,01.17,0.508
2017-04-06 01:07:00,1604E-3,5C000400,-0724,0835,12040,030.7,045.5,0.216,748.3,01.17,0.508
2017-04-06 01:08:00,1758E-3,5C000400,-0724,0834,11936,030.7,045.5,0.216,748.3,01.17,0.508
2017-04-06 01:09:00,1656E-3,5C000400,-0724,0836,12122,030.7,045.5,0.216,748.3,01.17,0.508
2017-04-06 01:10:00,1678E-3,5C000400,-0724,0835,12167,030.7,045.5,0.216,748.3,01.17,0.508
2017-04-06 01:11:00,1525E-3,5C000400,-0724,0836,12273,030.7,045.5,0.215,748.3,01.17,0.508
2017-04-06 01:12:00,1730E-3,5C000400,-0724,0836,12106,030.7,045.5,0.215,748.4,01.17,0.508
2017-04-06 01:13:00,1547E-3,5C000400,-0724,0835,12043,030.7,045.5,0.215,748.4,01.17,0.508
2017-04-06 01:14:00,1531E-3,5C000400,-0724,0836,12065,030.7,045.5,0.215,748.4,01.17,0.508
2017-04-06 01:15:00,1749E-3,5C000400,-0724,0835,11979,030.7,045.5,0.215,748.4,01.17,0.508
2017-04-06 01:16:00,1775E-3,5C000400,-0724,0835,12001,030.7,045.5,0.215,748.4,01.17,0.508
2017-04-06 01:17:00,1703E-3,5C000400,-0724,0836,12120,030.7,045.5,0.215,748.4,01.17,0.508
2017-04-06 01:18:00,1576E-3,5C000400,-0724,0834,12068,030.7,045.5,0.215,748.4,01.17,0.508
2017-04-06 01:19:00,1586E-3,5C000400,-0724,0835,11972,030.7,045.5,0.216,748.4,01.17,0.508
2017-04-06 01:20:00,1717E-3,5C000400,-0724,0835,12034,030.7,045.5,0.215,748.5,01.17,0.508
2017-04-06 01:21:00,1690E-3,5C000400,-0724,0836,12180,030.7,045.5,0.216,748.5,01.17,0.508
2017-04-06 01:22:00,1700E-3,5C000400,-0724,0836,11950,030.7,045.5,0.215,748.5,01.17,0.508
2017-04-06 01:23:00,1676E-3,5C000400,-0724,0836,12157,030.7,045.5,0.215,748.5,01.17,0.508
2017-04-06 01:24:00,1493E-3,5C000400,-0724,0837,12189,030.7,045.5,0.215,748.5,01.17,0.508
2017-04-06 01:25:00,1763E-3,5C000400,-0724,0835,12028,030.7,045.5,0.215,748.5,01.17,0.508
2017-04-06 01:26:00,1614E-3,5C000400,-0724,0836,12102,030.7,045.5,0.215,748.5,01.17,0.508
2017-04-06 01:27:00,1690E-3,5C000400,-0724,0835,12173,030.7,045.5,0.216,748.5,01.17,0.508
2017-04-06 01:28:00,1697E-3,5C000400,-0724,0835,12106,030.7,045.5,0.216,748.5,01.17,0.508
2017-04-06 01:29:00,1660E-3,5C000400,-0724,0835,12114,030.7,045.5,0.216,748.5,01.17,0.508
2017-04-06 01:30:00,1695E-3,5C000400,-0724,0835,12125,030.7,045.5,0.216,748.5,01.17,0.508
2017-04-06 01:31:00,1518E-3,5C000400,-0724,0835,12233,030.7,045.5,0.215,748.5,01.17,0.508
2017-04-06 01:32:00,1638E-3,5C000400,-0724,0836,12115,030.7,045.5,0.215,748.6,01.17,0.508
2017-04-06 01:33:00,1627E-3,5C000400,-0724,0836,12163,030.7,045.5,0.215,748.6,01.17,0.508
2017-04-06 01:34:00,1701E-3,5C000400,-0724,0836,12245,030.7,045.5,0.215,748.6,01.17,0.508
2017-04-06 01:35:00,1694E-3,5C000400,-0724,0836,12022,030.8,045.5,0.215,748.6,01.17,0.508
2017-04-06 01:36:00,1683E-3,5C000400,-0724,0836,12071,030.8,045.5,0.215,748.6,01.17,0.508
2017-04-06 01:37:00,1762E-3,5C000400,-0724,0835,12041,030.8,045.5,0.215,748.6,01.17,0.508
2017-04-06 01:38:00,1561E-3,5C000400,-0724,0836,12052,030.8,045.5,0.216,748.5,01.17,0.508
2017-04-06 01:39:00,1653E-3,5C000400,-0724,0836,12117,030.8,045.5,0.216,748.6,01.17,0.508
2017-04-06 01:40:00,1706E-3,5C000400,-0724,0836,12068,030.8,045.5,0.215,748.6,01.17,0.508
2017-04-06 01:41:00,1612E-3,5C000400,-0724,0835,12056,030.8,045.5,0.215,748.6,01.17,0.508
2017-04-06 01:42:00,1602E-3,5C000400,-0724,0835,12139,030.9,045.5,0.215,748.6,01.17,0.508
2017-04-06 01:43:00,1560E-3,5C000400,-0724,0835,12127,030.8,045.5,0.215,748.6,01.17,0.508
2017-04-06 01:44:00,1759E-3,5C000400,-0724,0835,12159,030.9,045.5,0.215,748.6,01.17,0.508
2017-04-06 01:45:00,1650E-3,5C000400,-0724,0836,12193,030.9,045.6,0.215,748.6,01.17,0.508
2017-04-06 01:46:00,1670E-3,5C000400,-0724,0836,12082,030.9,045.5,0.215,748.6,01.17,0.508
2017-04-06 01:47:00,1649E-3,5C000400,-0724,0835,12163,030.9,045.5,0.215,748.6,01.17,0.508
2017-04-06 01:48:00,1780E-3,5C000400,-0724,0835,12070,030.9,045.5,0.215,748.6,01.17,0.508
2017-04-06 01:49:00,1740E-3,5C000400,-0724,0835,12069,030.9,045.5,0.215,748.6,01.17,0.508
2017-04-06 01:50:00,1616E-3,5C000400,-0724,0836,12119,030.9,045.5,0.215,748.6,01.17,0.508
2017-04-06 01:51:00,1618E-3,5C000400,-0724,0835,11959,030.9,045.5,0.215,748.6,01.17,0.508
2017-04-06 01:52:00,1609E-3,5C000400,-0724,0836,12071,031.0,045.5,0.215,748.6,01.17,0.508
2017-04-06 01:53:00,1609E-3,5C000400,-0724,0836,12092,030.9,045.5,0.215,748.6,01.17,0.508
2017-04-06 01:54:00,1614E-3,5C000400,-0724,0836,12178,031.0,045.5,0.215,748.6,01.17,0.508
2017-04-06 01:55:00,1664E-3,5C000400,-0724,0836,12071,031.0,045.5,0.215,748.6,01.17,0.508
2017-04-06 01:56:00,1470E-3,5C000400,-0724,0835,12064,031.0,045.5,0.215,748.6,01.17,0.508
2017-04-06 01:57:00,1688E-3,5C000400,-0724,0836,11989,031.0,045.5,0.215,748.6,01.17,0.508
2017-04-06 01:58:00,1636E-3,5C000400,-0724,0835,12106,031.0,045.6,0.215,748.6,01.17,0.508
2017-04-06 01:59:00,1699E-3,5C000400,-0724,0836,12161,031.0,045.5,0.215,748.6,01.17,0.508
2017-04-06 02:00:00,1654E-3,5C000400,-0724,0836,12135,031.0,045.5,0.215,748.6,01.17,0.508
2017-04-06 02:01:00,1657E-3,5C000400,-0724,0836,12044,031.0,045.5,0.215,748.6,01.17,0.508
2017-04-06 02:02:00,1634E-3,5C000400,-0724,0836,12204,031.0,045.5,0.215,748.6,01.17,0.508
2017-04-06 02:03:00,1687E-3,5C000400,-0724,0835,12027,031.0,045.6,0.215,748.6,01.17,0.508
2017-04-06 02:04:00,1614E-3,5C000400,-0724,0836,12085,031.0,045.5,0.215,748.6,01.17,0.508
2017-04-06 02:05:00,1636E-3,5C000400,-0724,0835,11947,031.0,045.5,0.215,748.6,01.17,0.508
2017-04-06 02:06:00,1702E-3,5C000400,-0724,0836,12137,031.0,045.5,0.215,748.6,01.17,0.508
2017-04-06 02:07:00,1778E-3,5C000400,-0724,0836,11996,031.0,045.5,0.215,748.6,01.17,0.508
2017-04-06 02:08:00,1579E-3,5C000400,-0724,0835,12020,031.0,045.5,0.215,748.6,01.17,0.508
2017-04-06 02:09:00,1636E-3,5C000400,-0724,0836,12049,031.0,045.5,0.215,748.6,01.17,0.508
2017-04-06 02:10:00,1555E-3,5C000400,-0724,0836,12158,031.1,045.5,0.215,748.7,01.17,0.508
2017-04-06 02:11:00,1732E-3,5C000400,-0724,0835,11845,031.0,045.6,0.214,748.7,01.17,0.508
2017-04-06 02:12:00,1739E-3,5C000400,-0724,0836,11917,031.1,045.5,0.214,748.7,01.17,0.508
2017-04-06 02:13:00,1700E-3,5C000400,-0724,0836,11952,031.1,045.5,0.214,748.6,01.17,0.508
2017-04-06 02:14:00,1562E-3,5C000400,-0724,0836,12155,031.0,045.6,0.215,748.7,01.17,0.508
2017-04-06 02:15:00,1741E-3,5C000400,-0724,0835,12053,031.1,045.5,0.215,748.7,01.17,0.508
2017-04-06 02:16:00,1724E-3,5C000400,-0724,0836,12126,031.1,045.5,0.214,748.7,01.17,0.508
2017-04-06 02:17:00,1635E-3,5C000400,-0724,0837,12127,031.1,045.5,0.215,748.7,01.17,0.508
2017-04-06 02:18:00,1737E-3,5C000400,-0724,0836,12195,031.1,045.5,0.215,748.7,01.17,0.508
2017-04-06 02:19:00,1757E-3,5C000400,-0724,0836,12058,031.1,045.5,0.215,748.7,01.17,0.508
2017-04-06 02:20:00,1710E-3,5C000400,-0724,0836,11980,031.1,045.5,0.215,748.7,01.17,0.508
2017-04-06 02:21:00,1709E-3,5C000400,-0724,0836,12038,031.1,045.6,0.215,748.7,01.17,0.508
2017-04-06 02:22:00,1651E-3,5C000400,-0724,0835,12068,031.1,045.5,0.215,748.7,01.17,0.508
2017-04-06 02:23:00,1660E-3,5C000400,-0724,0836,12097,031.1,045.5,0.215,748.7,01.17,0.508
2017-04-06 02:24:00,1652E-3,5C000400,-0724,0837,12055,031.1,045.5,0.215,748.8,01.17,0.508
2017-04-06 02:25:00,1644E-3,5C000400,-0724,0836,12045,031.1,045.5,0.215,748.8,01.17,0.508
2017-04-06 02:26:00,1477E-3,5C000400,-0724,0836,12060,031.0,045.6,0.215,748.7,01.17,0.508
2017-04-06 02:27:00,1669E-3,5C000400,-0724,0836,12191,031.1,045.6,0.215,748.7,01.17,0.508
2017-04-06 02:28:00,1696E-3,5C000400,-0724,0836,12043,031.1,045.5,0.215,748.7,01.17,0.508
2017-04-06 02:29:00,1689E-3,5C000400,-0724,0836,12165,031.1,045.5,0.215,748.8,01.17,0.508
2017-04-06 02:30:00,1789E-3,5C000400,-0724,0836,12178,031.1,045.5,0.215,748.8,01.17,0.508
2017-04-06 02:31:00,1621E-3,5C000400,-0724,0835,12151,031.1,045.5,0.215,748.7,01.17,0.508
2017-04-06 02:32:00,1606E-3,5C000400,-0724,0836,12172,031.1,045.5,0.215,748.7,01.17,0.508
2017-04-06 02:33:00,1654E-3,5C000400,-0724,0836,11946,031.1,045.5,0.215,748.7,01.17,0.508
2017-04-06 02:34:00,1571E-3,5C000400,-0724,0836,12081,031.1,045.5,0.215,748.7,01.17,0.508
2017-04-06 02:35:00,1664E-3,5C000400,-0724,0836,12004,031.1,045.6,0.214,748.8,01.17,0.508
2017-04-06 02:36:00,1797E-3,5C000400,-0724,0835,12048,031.1,045.6,0.214,748.8,01.17,0.508
2017-04-06 02:37:00,1665E-3,5C000400,-0724,0836,12097,031.2,045.6,0.214,748.7,01.17,0.508
2017-04-06 02:38:00,1628E-3,5C000400,-0724,0836,12054,031.2,045.5,0.215,748.8,01.17,0.508
2017-04-06 02:39:00,1700E-3,5C000400,-0724,0836,12154,031.2,045.5,0.215,748.8,01.17,0.508
2017-04-06 02:40:00,1706E-3,5C000400,-0724,0836,12121,031.2,045.6,0.215,748.8,01.17,0.508
2017-04-06 02:41:00,1703E-3,5C000400,-0724,0836,11997,031.2,045.6,0.215,748.8,01.17,0.508
2017-04-06 02:42:00,1502E-3,5C000400,-0724,0836,11973,031.2,045.6,0.215,748.8,01.17,0.508
2017-04-06 02:43:00,1736E-3,5C000400,-0724,0836,12112,031.2,045.6,0.215,748.8,01.17,0.508
2017-04-06 02:44:00,1775E-3,5C000400,-0724,0836,12100,031.3,045.6,0.215,748.8,01.17,0.508
2017-04-06 02:45:00,1617E-3,5C000400,-0724,0836,12123,031.3,045.6,0.214,748.8,01.17,0.508
2017-04-06 02:46:00,1583E-3,5C000400,-0724,0836,12011,031.3,045.5,0.214,748.8,01.17,0.508
2017-04-06 02:47:00,1733E-3,5C000400,-0724,0836,12060,031.3,045.5,0.214,748.8,01.17,0.508
2017-04-06 02:48:00,1676E-3,5C000400,-0724,0836,12012,031.3,045.6,0.214,748.8,01.17,0.508
2017-04-06 02:49:00,1670E-3,5C000400,-0724,0836,12175,031.3,045.5,0.214,748.9,01.17,0.508
2017-04-06 02:50:00,1725E-3,5C000400,-0724,0836,12020,031.3,045.6,0.214,748.8,01.17,0.508
2017-04-06 02:51:00,1660E-3,5C000400,-0724,0835,12128,031.4,045.6,0.214,748.9,01.17,0.508
2017-04-06 02:52:00,1536E-3,5C000400,-0724,0836,12163,031.4,045.6,0.214,748.9,01.17,0.508
2017-04-06 02:53:00,1598E-3,5C000400,-0724,0836,12210,031.4,045.6,0.214,748.9,01.17,0.508
2017-04-06 02:54:00,1554E-3,5C000400,-0724,0836,12104,031.4,045.6,0.214,748.9,01.17,0.508
2017-04-06 02:55:00,1596E-3,5C000400,-0724,0836,12092,031.4,045.6,0.214,748.9,01.17,0.508
2017-04-06 02:56:00,1603E-3,5C000400,-0724,0835,12037,031.4,045.6,0.214,748.9,01.17,0.508
2017-04-06 02:57:00,1603E-3,5C000400,-0724,0836,12023,031.5,045.5,0.214,748.9,01.17,0.508
2017-04-06 02:58:00,1693E-3,5C000400,-0724,0836,12014,031.5,045.6,0.214,748.9,01.17,0.508
2017-04-06 02:59:00,1826E-3,5C000400,-0724,0836,12013,031.5,045.6,0.214,748.9,01.17,0.508
2017-04-06 03:00:00,1762E-3,5C000400,-0724,0836,12026,031.5,045.6,0.214,748.9,01.17,0.508
2017-04-06 03:01:00,1552E-3,5C000400,-0724,0836,11987,031.6,045.6,0.214,748.8,01.17,0.508
2017-04-06 03:02:00,1650E-3,5C000400,-0724,0837,12048,031.6,045.6,0.214,748.8,01.17,0.508
2017-04-06 03:03:00,1700E-3,5C000400,-0724,0835,12132,031.6,045.6,0.214,748.8,01.17,0.508
2017-04-06 03:04:00,1652E-3,5C000400,-0724,0836,12150,031.6,045.6,0.214,748.8,01.17,0.508
2017-04-06 03:05:00,1643E-3,5C000400,-0724,0836,12137,031.6,045.6,0.214,748.8,01.17,0.508
2017-04-06 03:06:00,1677E-3,5C000400,-0724,0836,12112,031.6,045.6,0.214,748.8,01.17,0.508
2017-04-06 03:07:00,1723E-3,5C000400,-0724,0836,12074,031.6,045.6,0.214,748.8,01.17,0.508
2017-04-06 03:08:00,1662E-3,5C000400,-0724,0836,12101,031.6,045.6,0.214,748.8,01.17,0.508
2017-04-06 03:09:00,1697E-3,5C000400,-0724,0836,12141,031.6,045.6,0.214,748.8,01.17,0.508
2017-04-06 03:10:00,1786E-3,5C000400,-0724,0836,11915,031.6,045.6,0.213,748.9,01.17,0.508
2017-04-06 03:11:00,1622E-3,5C000400,-0724,0837,12090,031.6,045.6,0.213,748.9,01.17,0.508
2017-04-06 03:12:00,1715E-3,5C000400,-0724,0836,12073,031.7,045.5,0.213,748.9,01.17,0.508
2017-04-06 03:13:00,1624E-3,5C000400,-0724,0836,12204,031.7,045.6,0.213,748.8,01.17,0.508
2017-04-06 03:14:00,1684E-3,5C000400,-0724,0836,12095,031.7,045.6,0.213,748.9,01.17,0.508
2017-04-06 03:15:00,1599E-3,5C000400,-0724,0836,12131,031.7,045.6,0.213,748.9,01.17,0.508
2017-04-06 03:16:00,1633E-3,5C000400,-0724,0836,11977,031.7,045.6,0.213,748.9,01.17,0.508
2017-04-06 03:17:00,1639E-3,5C000400,-0724,0836,12120,031.7,045.6,0.213,748.9,01.17,0.508
2017-04-06 03:18:00,1707E-3,5C000400,-0724,0836,12097,031.7,045.6,0.213,748.9,01.17,0.508
2017-04-06 03:19:00,1712E-3,5C000400,-0724,0837,12067,031.8,045.6,0.213,748.9,01.17,0.508
2017-04-06 03:20:00,1682E-3,5C000400,-0724,0836,11954,031.8,045.6,0.214,748.9,01.17,0.508
2017-04-06 03:21:00,1724E-3,5C000400,-0724,0837,12088,031.8,045.6,0.214,748.9,01.17,0.508
2017-04-06 03:22:00,1686E-3,5C000400,-0724,0836,12097,031.8,045.6,0.214,748.9,01.17,0.508
2017-04-06 03:23:00,1780E-3,5C000400,-0724,0836,12022,031.8,045.6,0.213,748.8,01.17,0.508
2017-04-06 03:24:00,1619E-3,5C000400,-0724,0837,11973,031.8,045.6,0.213,748.8,01.17,0.508
2017-04-06 03:25:00,1617E-3,5C000400,-0724,0837,12178,031.8,045.6,0.213,748.8,01.17,0.508
2017-04-06 03:26:00,1676E-3,5C000400,-0724,0836,12079,031.8,045.6,0.213,748.9,01.17,0.508
2017-04-06 03:27:00,1643E-3,5C000400,-0724,0836,12056,031.8,045.6,0.213,748.9,01.17,0.508
2017-04-06 03:28:00,1531E-3,5C000400,-0724,0836,12228,031.8,045.6,0.213,748.9,01.17,0.508
2017-04-06 03:29:00,1682E-3,5C000400,-0724,0836,12142,031.9,045.6,0.213,748.9,01.17,0.508
2017-04-06 03:30:00,1638E-3,5C000400,-0724,0836,12063,031.9,045.6,0.213,748.9,01.17,0.508
2017-04-06 03:31:00,1782E-3,5C000400,-0724,0836,12090,031.9,045.6,0.213,748.9,01.17,0.508
2017-04-06 03:32:00,1641E-3,5C000400,-0724,0836,12160,031.9,045.6,0.213,748.9,01.17,0.508
2017-04-06 03:33:00,1631E-3,5C000400,-0724,0836,12091,031.9,045.6,0.213,748.9,01.17,0.508
2017-04-06 03:34:00,1679E-3,5C000400,-0724,0836,12063,031.9,045.6,0.213,748.9,01.17,0.508
2017-04-06 03:35:00,1691E-3,5C000400,-0724,0836,12073,031.9,045.6,0.213,748.9,01.17,0.508
2017-04-06 03:36:00,1511E-3,5C000400,-0724,0836,12143,031.9,045.6,0.213,748.8,01.17,0.508
2017-04-06 03:37:00,1631E-3,5C000400,-0724,0836,11942,032.0,045.6,0.213,748.9,01.17,0.508
2017-04-06 03:38:00,1608E-3,5C000400,-0724,0836,12106,032.0,045.6,0.213,748.9,01.17,0.508
2017-04-06 03:39:00,1652E-3,5C000400,-0724,0836,12077,032.0,045.6,0.213,748.9,01.17,0.508
2017-04-06 03:40:00,1594E-3,5C000400,-0724,0835,12150,032.0,045.6,0.213,748.9,01.17,0.508
2017-04-06 03:41:00,1768E-3,5C000400,-0724,0836,12255,032.0,045.6,0.212,748.9,01.17,0.508
2017-04-06 03:42:00,1629E-3,5C000400,-0724,0836,11952,032.0,045.6,0.213,748.9,01.17,0.508
2017-04-06 03:43:00,1619E-3,5C000400,-0724,0836,12046,032.0,045.6,0.213,748.8,01.17,0.508
2017-04-06 03:44:00,1640E-3,5C000400,-0724,0836,12000,032.0,045.6,0.213,748.9,01.17,0.508
2017-04-06 03:45:00,1657E-3,5C000400,-0724,0837,12083,032.1,045.6,0.213,748.9,01.17,0.508
2017-04-06 03:46:00,1583E-3,5C000400,-0724,0835,12141,032.1,045.6,0.213,748.9,01.17,0.508
2017-04-06 03:47:00,1678E-3,5C000400,-0724,0836,12023,032.1,045.6,0.213,748.9,01.17,0.508
2017-04-06 03:48:00,1806E-3,5C000400,-0724,0836,12043,032.1,045.6,0.213,748.9,01.17,0.508
2017-04-06 03:49:00,1647E-3,5C000400,-0724,0837,12166,032.1,045.6,0.213,748.9,01.17,0.508
2017-04-06 03:50:00,1644E-3,5C000400,-0724,0837,12093,032.1,045.6,0.212,748.9,01.17,0.508
2017-04-06 03:51:00,1715E-3,5C000400,-0724,0836,11967,032.2,045.6,0.212,748.9,01.17,0.508
2017-04-06 03:52:00,1702E-3,5C000400,-0724,0836,12104,032.2,045.6,0.212,748.9,01.17,0.508
2017-04-06 03:53:00,1729E-3,5C000400,-0724,0837,12035,032.2,045.6,0.213,748.9,01.17,0.508
2017-04-06 03:54:00,1752E-3,5C000400,-0724,0836,11973,032.2,045.6,0.212,748.9,01.17,0.508
2017-04-06 03:55:00,1685E-3,5C000400,-0724,0837,12111,032.2,045.6,0.213,748.9,01.17,0.508
2017-04-06 03:56:00,1704E-3,5C000400,-0724,0836,11976,032.2,045.6,0.213,748.9,01.17,0.508
2017-04-06 03:57:00,1656E-3,5C000400,-0724,0836,12022,032.2,045.6,0.212,749.0,01.17,0.508
2017-04-06 03:58:00,1542E-3,5C000400,-0724,0836,12026,032.2,045.6,0.212,748.9,01.17,0.508
2017-04-06 03:59:00,1712E-3,5C000400,-0724,0836,12163,032.3,045.6,0.212,748.9,01.17,0.508
2017-04-06 04:00:00,1713E-3,5C000400,-0724,0836,12151,032.3,045.6,0.212,748.9,01.17,0.508
2017-04-06 04:01:00,1681E-3,5C000400,-0724,0837,12196,032.3,045.6,0.212,748.9,01.17,0.508
2017-04-06 04:02:00,1695E-3,5C000400,-0724,0836,12086,032.3,045.6,0.212,748.9,01.17,0.508
2017-04-06 04:03:00,1696E-3,5C000400,-0724,0836,12064,032.3,045.6,0.212,748.9,01.17,0.508
2017-04-06 04:04:00,1604E-3,5C000400,-0724,0837,12058,032.3,045.6,0.212,748.9,01.17,0.508
2017-04-06 04:05:00,1680E-3,5C000400,-0724,0836,12047,032.3,045.6,0.212,748.9,01.17,0.508
2017-04-06 04:06:00,1733E-3,5C000400,-0724,0837,11998,032.3,045.6,0.212,748.9,01.17,0.508
2017-04-06 04:07:00,1585E-3,5C000400,-0724,0837,12017,032.4,045.6,0.212,748.9,01.17,0.508
2017-04-06 04:08:00,1763E-3,5C000400,-0724,0836,12039,032.4,045.6,0.212,748.9,01.17,0.508
2017-04-06 04:09:00,1724E-3,5C000400,-0724,0837,12121,032.4,045.6,0.212,748.9,01.17,0.508
2017-04-06 04:10:00,1706E-3,5C000400,-0724,0837,12041,032.4,045.6,0.212,748.9,01.17,0.508
2017-04-06 04:11:00,1672E-3,5C000400,-0724,0836,12064,032.4,045.6,0.212,748.9,01.17,0.508
2017-04-06 04:12:00,1580E-3,5C000400,-0724,0837,11914,032.5,045.6,0.212,748.9,01.17,0.508
2017-04-06 04:13:00,1581E-3,5C000400,-0724,0837,12190,032.5,045.6,0.212,748.9,01.17,0.508
2017-04-06 04:14:00,1705E-3,5C000400,-0724,0837,12053,032.4,045.6,0.212,748.9,01.17,0.508
2017-04-06 04:15:00,1693E-3,5C000400,-0724,0837,12138,032.5,045.6,0.212,748.9,01.17,0.508
2017-04-06 04:16:00,1643E-3,5C000400,-0724,0837,12038,032.5,045.6,0.212,748.9,01.17,0.508
2017-04-06 04:17:00,1634E-3,5C000400,-0724,0837,12083,032.5,045.6,0.212,748.9,01.17,0.508
2017-04-06 04:18:00,1728E-3,5C000400,-0724,0837,12016,032.5,045.6,0.212,748.9,01.17,0.508
2017-04-06 04:19:00,1620E-3,5C000400,-0724,0836,12077,032.5,045.6,0.211,748.9,01.17,0.508
2017-04-06 04:20:00,1619E-3,5C000400,-0724,0836,12168,032.5,045.6,0.211,748.9,01.17,0.508